Meteo orario Zagorzyn

Oggi, 7 Maggio, Venerdi

Tempo Temperatura Precipitazioni Vento Pressione Umidità
00:00 +6°C° 0 mm 2 m/s 717 mm Hg 81%
01:00 +5°C° 0 mm 3 m/s 717 mm Hg 78%
02:00 +6°C° 0.1 mm 2 m/s 716 mm Hg 82%
03:00 +6°C° 0.1 mm 2 m/s 716 mm Hg 86%
04:00 +5°C° 0.1 mm 2 m/s 715 mm Hg 91%
05:00 +7°C° 0 mm 2 m/s 715 mm Hg 86%
06:00 +8°C° 0 mm 3 m/s 715 mm Hg 81%
07:00 +9°C° 0 mm 3 m/s 716 mm Hg 77%
08:00 +10°C° 0 mm 4 m/s 716 mm Hg 72%
09:00 +11°C° 0 mm 4 m/s 716 mm Hg 68%
10:00 +12°C° 0 mm 5 m/s 716 mm Hg 63%
11:00 +12°C° 0.1 mm 4 m/s 716 mm Hg 63%
12:00 +13°C° 0.1 mm 4 m/s 716 mm Hg 62%
13:00 +13°C° 0.1 mm 4 m/s 716 mm Hg 62%
14:00 +12°C° 0.4 mm 4 m/s 716 mm Hg 69%
15:00 +11°C° 0.4 mm 4 m/s 716 mm Hg 76%
16:00 +10°C° 0.4 mm 4 m/s 717 mm Hg 83%
17:00 +7°C° 0.4 mm 4 m/s 717 mm Hg 86%
18:00 +6°C° 0.4 mm 4 m/s 718 mm Hg 88%
19:00 +5°C° 0.4 mm 4 m/s 719 mm Hg 91%
20:00 +4°C° 0.1 mm 4 m/s 720 mm Hg 90%
21:00 +4°C° 0.1 mm 4 m/s 720 mm Hg 89%
22:00 +3°C° 0.1 mm 4 m/s 721 mm Hg 88%
23:00 +1°C° 0 mm 4 m/s 721 mm Hg 88%

Domani, 8 Maggio, Sabato

Tempo Temperatura Precipitazioni Vento Pressione Umidità
00:00 +2°C° 0 mm 3 m/s 722 mm Hg 88%
01:00 +1°C° 0 mm 3 m/s 723 mm Hg 89%
02:00 +1°C° 0 mm 3 m/s 723 mm Hg 88%
03:00 +1°C° 0 mm 3 m/s 723 mm Hg 88%
04:00 0°C° 0 mm 4 m/s 724 mm Hg 87%
05:00 +1°C° 0 mm 4 m/s 724 mm Hg 82%
06:00 +3°C° 0 mm 4 m/s 725 mm Hg 78%
07:00 +4°C° 0 mm 4 m/s 726 mm Hg 73%
08:00 +5°C° 0 mm 4 m/s 726 mm Hg 67%
09:00 +6°C° 0 mm 4 m/s 726 mm Hg 61%
10:00 +6°C° 0 mm 4 m/s 726 mm Hg 55%
11:00 +7°C° 0 mm 4 m/s 726 mm Hg 51%
12:00 +10°C° 0 mm 4 m/s 726 mm Hg 48%
13:00 +11°C° 0 mm 4 m/s 726 mm Hg 44%
14:00 +11°C° 0 mm 4 m/s 726 mm Hg 44%
15:00 +11°C° 0 mm 3 m/s 726 mm Hg 44%
16:00 +11°C° 0 mm 3 m/s 726 mm Hg 45%
17:00 +9°C° 0 mm 2 m/s 726 mm Hg 54%
18:00 +8°C° 0 mm 1 m/s 726 mm Hg 63%
19:00 +5°C° 0 mm 0 m/s 726 mm Hg 72%
20:00 +6°C° 0 mm 1 m/s 727 mm Hg 73%
21:00 +5°C° 0 mm 1 m/s 727 mm Hg 75%
22:00 +5°C° 0 mm 1 m/s 727 mm Hg 76%
23:00 +4°C° 0 mm 1 m/s 727 mm Hg 76%

Dopodomani, 9 Maggio, Domenica

Tempo Temperatura Precipitazioni Vento Pressione Umidità
00:00 +3°C° 0 mm 2 m/s 728 mm Hg 77%
01:00 +3°C° 0 mm 2 m/s 728 mm Hg 77%
02:00 +2°C° 0 mm 2 m/s 728 mm Hg 77%
03:00 +2°C° 0 mm 2 m/s 728 mm Hg 77%
04:00 +2°C° 0 mm 2 m/s 728 mm Hg 77%
05:00 +4°C° 0 mm 2 m/s 728 mm Hg 71%
06:00 +7°C° 0 mm 2 m/s 728 mm Hg 64%
07:00 +9°C° 0 mm 2 m/s 727 mm Hg 57%
08:00 +12°C° 0 mm 2 m/s 727 mm Hg 52%
09:00 +14°C° 0 mm 2 m/s 727 mm Hg 48%
10:00 +16°C° 0 mm 3 m/s 727 mm Hg 43%
11:00 +17°C° 0 mm 3 m/s 727 mm Hg 42%
12:00 +18°C° 0 mm 3 m/s 727 mm Hg 41%
13:00 +20°C° 0 mm 3 m/s 726 mm Hg 40%
14:00 +19°C° 0 mm 3 m/s 726 mm Hg 42%
15:00 +19°C° 0 mm 3 m/s 726 mm Hg 44%
16:00 +19°C° 0 mm 3 m/s 726 mm Hg 46%
17:00 +17°C° 0 mm 3 m/s 726 mm Hg 55%
18:00 +13°C° 0 mm 3 m/s 726 mm Hg 64%
19:00 +11°C° 0 mm 3 m/s 726 mm Hg 73%
20:00 +10°C° 0 mm 3 m/s 726 mm Hg 77%
21:00 +9°C° 0 mm 3 m/s 726 mm Hg 81%
22:00 +7°C° 0 mm 2 m/s 726 mm Hg 86%
23:00 +7°C° 0 mm 2 m/s 726 mm Hg 86%

10 Maggio, Lunedi

Tempo Temperatura Precipitazioni Vento Pressione Umidità
00:00 +7°C° 0 mm 2 m/s 725 mm Hg 87%
01:00 +6°C° 0 mm 2 m/s 725 mm Hg 87%
02:00 +6°C° 0 mm 2 m/s 725 mm Hg 86%
03:00 +6°C° 0 mm 2 m/s 725 mm Hg 84%
04:00 +6°C° 0 mm 2 m/s 725 mm Hg 82%
05:00 +8°C° 0 mm 3 m/s 725 mm Hg 75%
06:00 +11°C° 0 mm 3 m/s 725 mm Hg 67%
07:00 +13°C° 0 mm 3 m/s 724 mm Hg 60%
08:00 +15°C° 0 mm 4 m/s 724 mm Hg 54%
09:00 +18°C° 0 mm 4 m/s 724 mm Hg 48%
10:00 +21°C° 0 mm 4 m/s 724 mm Hg 43%
11:00 +21°C° 0 mm 4 m/s 724 mm Hg 42%
12:00 +22°C° 0 mm 4 m/s 724 mm Hg 41%
13:00 +23°C° 0 mm 4 m/s 724 mm Hg 40%
14:00 +23°C° 0 mm 4 m/s 724 mm Hg 43%
15:00 +22°C° 0 mm 4 m/s 724 mm Hg 47%
16:00 +22°C° 0 mm 4 m/s 724 mm Hg 50%
17:00 +20°C° 0 mm 4 m/s 724 mm Hg 59%
18:00 +18°C° 0 mm 3 m/s 724 mm Hg 69%
19:00 +14°C° 0 mm 3 m/s 724 mm Hg 78%
20:00 +13°C° 0 mm 3 m/s 724 mm Hg 82%
21:00 +13°C° 0 mm 2 m/s 724 mm Hg 86%
22:00 +12°C° 0 mm 2 m/s 724 mm Hg 91%
23:00 +12°C° 0 mm 2 m/s 724 mm Hg 91%

11 Maggio, Martedi

Tempo Temperatura Precipitazioni Vento Pressione Umidità
00:00 +10°C° 0 mm 2 m/s 724 mm Hg 92%
01:00 +10°C° 0 mm 2 m/s 724 mm Hg 92%
02:00 +10°C° 0 mm 2 m/s 723 mm Hg 91%
03:00 +10°C° 0 mm 3 m/s 723 mm Hg 89%
04:00 +10°C° 0 mm 3 m/s 723 mm Hg 88%
05:00 +12°C° 0 mm 3 m/s 723 mm Hg 80%
06:00 +14°C° 0 mm 3 m/s 723 mm Hg 73%
07:00 +17°C° 0 mm 3 m/s 723 mm Hg 65%
08:00 +19°C° 0 mm 3 m/s 723 mm Hg 58%
09:00 +21°C° 0 mm 4 m/s 723 mm Hg 51%
10:00 +23°C° 0 mm 4 m/s 723 mm Hg 44%
11:00 +25°C° 0 mm 4 m/s 723 mm Hg 42%
12:00 +26°C° 0 mm 5 m/s 722 mm Hg 41%
13:00 +27°C° 0 mm 5 m/s 722 mm Hg 39%
14:00 +26°C° 0 mm 5 m/s 722 mm Hg 42%
15:00 +25°C° 0 mm 5 m/s 722 mm Hg 46%
16:00 +25°C° 0 mm 5 m/s 722 mm Hg 49%
17:00 +22°C° 0 mm 4 m/s 721 mm Hg 59%
18:00 +20°C° 0 mm 4 m/s 721 mm Hg 68%
19:00 +17°C° 0 mm 3 m/s 721 mm Hg 77%
20:00 +16°C° 0 mm 3 m/s 721 mm Hg 82%
21:00 +14°C° 0 mm 3 m/s 720 mm Hg 88%
22:00 +13°C° 0 mm 3 m/s 720 mm Hg 94%
23:00 +13°C° 0 mm 2 m/s 720 mm Hg 94%

12 Maggio, Mercoledi

Tempo Temperatura Precipitazioni Vento Pressione Umidità
00:00 +13°C° 0 mm 2 m/s 720 mm Hg 95%
01:00 +13°C° 0 mm 2 m/s 720 mm Hg 95%
02:00 +12°C° 0 mm 2 m/s 719 mm Hg 95%
03:00 +12°C° 0 mm 2 m/s 719 mm Hg 95%
04:00 +12°C° 0 mm 2 m/s 719 mm Hg 95%
05:00 +14°C° 0 mm 2 m/s 719 mm Hg 87%
06:00 +16°C° 0 mm 2 m/s 719 mm Hg 80%
07:00 +18°C° 0 mm 2 m/s 719 mm Hg 73%
08:00 +20°C° 0 mm 3 m/s 718 mm Hg 64%
09:00 +21°C° 0 mm 3 m/s 718 mm Hg 56%
10:00 +24°C° 0 mm 3 m/s 718 mm Hg 47%
11:00 +25°C° 0 mm 4 m/s 718 mm Hg 46%
12:00 +25°C° 0 mm 4 m/s 718 mm Hg 45%
13:00 +26°C° 0 mm 5 m/s 717 mm Hg 43%
14:00 +25°C° 0 mm 5 m/s 717 mm Hg 47%
15:00 +23°C° 0 mm 5 m/s 717 mm Hg 51%
16:00 +22°C° 0 mm 4 m/s 717 mm Hg 55%
17:00 +20°C° 0 mm 4 m/s 717 mm Hg 63%
18:00 +18°C° 0 mm 3 m/s 716 mm Hg 71%
19:00 +16°C° 0 mm 2 m/s 716 mm Hg 79%
20:00 +16°C° 0.1 mm 2 m/s 717 mm Hg 83%
21:00 +15°C° 0.1 mm 1 m/s 717 mm Hg 86%
22:00 +14°C° 0.1 mm 1 m/s 717 mm Hg 90%
23:00 +14°C° 0.2 mm 1 m/s 717 mm Hg 92%
Mostrare altro

Abbiamo bisogno del tuo consenso

Meteoprog e i nostri fornitori di servizi possono memorizzare e accedere a dati personali come cookie, identificatori di dispositivi o altre tecnologie simili sul tuo dispositivo e possono elaborare tali dati per personalizzare i contenuti e gli annunci, nonché fornire funzionalità dei social media e analizzarne il traffico.

  • Archiviare e/o accedere alle informazioni sul tuo dispositivo

    Cookie, identificatori di dispositivi o altre informazioni possono essere memorizzati o resi accessibili sul tuo dispositivo per le finalità sopra indicate.

  • Annunci e contenuti personalizzati, misurazione di annunci e contenuti, approfondimenti sul pubblico e sviluppo di prodotti

    Gli annunci e i contenuti possono essere personalizzati in base a un profilo. È possibile aggiungere più dati per personalizzare meglio annunci e contenuti. È possibile misurare il rendimento degli annunci e dei contenuti. È possibile ricavare informazioni sul pubblico che ha visto gli annunci e i contenuti. Tali dati possono essere utilizzati per sviluppare o migliorare l'esperienza, i sistemi e il software dell'utente.

Cliccando su “Accetto”, acconsenti all'uso di cookie, identificatori di dispositivo, web beacon o altre tecnologie simili. Puoi modificare le impostazioni nel browser del tuo dispositivo.

Per determinati scopi, è possibile fare affidamento su interessi legali, piuttosto che sul consenso. Puoi approfondire questo argomento consultando la nostra Informativa sulla privacy e sui cookie.